Погода в Ольгинке

Украина / Донецкая область     47°41′39″N   37°30′12″E
темп.,
°C
ветер,
м/с
пор.,
м/с
влажн.,
%
обл.,
%
осадки,
мм/ч
давл.,
гПа
погр.,
м
7 мая, пт
пт700:00+10юз346738 0.0 101247
03:00+8з3572100 0.0 101271
06:00+9сз3689100 0.0 1013181
09:00+14сз557372 0.0 1015828
12:00+17сз45445 0.0 10151517
15:00+19зсз3437100 0.0 10161939
18:00+18зсз12385 0.0 10151715
21:00+13ююв445599 0.0 101655
8 мая, сб
сб800:00+11ю4774100 0.0 1016122
03:00+11ююв41077100 0.0 1015236
06:00+12ю51283100 0.0 1014433
09:00+15ю71168100 0.0 1013751
12:00+18ю81061100 0.0 1012966
15:00+19ююз7957100 0.0 10101228
18:00+18зюз5663100 0.1 10101084
21:00+12сз5889100 0.1 1012518
9 мая, вс
вс900:00+8ссз71291100 1.8 1013613
03:00+8ссз71190100 9.0 1014728
06:00+7ссз71188100 0.4 1015912
09:00+9ссз81171100 0.5 10171228
12:00+12ссз91052100 0.0 10181550
15:00+13ссз911447 0.0 10192096
18:00+12ссз794987 0.0 10211977
21:00+8ссз512605 0.0 1024339
10 мая, пн
пн1000:00+6ссз410735 0.0 1025237
03:00+4сз410825 0.0 1026223
06:00+5ссз51379100 0.0 1026445
09:00+10ссз81255100 0.0 10251465
12:00+12с91247100 0.0 10231843
15:00+13ссз91348100 0.0 10212418
18:00+10с91667100 0.3 10211527
21:00+8ссз91778100 0.4 10201119
11 мая, вт
вт1100:00+8ссз91686100 0.2 1017855
03:00+9с91691100 0.8 1015794
06:00+9ссв71393100 0.0 1016852
09:00+9св61188100 0.2 1016934
12:00+10св81069100 0.3 10171454
15:00+9св71278100 0.3 10181257
18:00+7св61288100 0.1 10181145
21:00+7всв101691100 0.9 1018815